SQ6MTB Weather Reports


Display with metric or nautical units.
time (UTC)temp
F
wind
direction
speed
MPH
gust
MPH
rain 1hr
in
rain 24hr
in
rain mn
in
humidity
%
barometer
mb
20260503222041 66 203 3.0 10.0 0.00 0.00 0.00 41 1011.1
20260503221601 66 210 2.0 7.0 0.00 0.00 0.00 41 1011.2
20260503221028 66 221 3.0 8.0 0.00 0.00 0.00 41 1011.2
20260503220545 66 196 3.0 8.0 0.00 0.00 0.00 41 1011.3
20260503220003 66 165 2.0 8.0 0.00 0.00 0.00 40 1011.3
20260503215527 66 206 1.0 10.0 0.00 0.00 0.00 40 1011.3
20260503215044 67 190 4.0 10.0 0.00 0.00 0.00 40 1011.3
20260503214602 67 225 2.0 8.0 0.00 0.00 0.00 39 1011.2
20260503214015 67 188 3.0 8.0 0.00 0.00 0.00 38 1011.3
20260503213535 68 204 1.0 8.0 0.00 0.00 0.00 38 1011.3
20260503213055 68 159 3.0 10.0 0.00 0.00 0.00 38 1011.3
20260503212511 68 92 1.0 12.0 0.00 0.00 0.00 37 1011.3
20260503212041 68 188 3.0 9.0 0.00 0.00 0.00 37 1011.3
20260503211602 68 205 4.0 9.0 0.00 0.00 0.00 37 1011.3
20260503211026 69 159 2.0 9.0 0.00 0.00 0.00 36 1011.3
20260503210543 69 171 2.0 9.0 0.00 0.00 0.00 36 1011.4
20260503205527 69 118 4.0 9.0 0.00 0.00 0.00 36 1011.3
20260503205048 69 186 2.0 7.0 0.00 0.00 0.00 36 1011.4
20260503204522 69 360 3.0 10.0 0.00 0.00 0.00 35 1011.5
20260503204031 69 157 5.0 10.0 0.00 0.00 0.00 35 1011.4
20260503203552 69 191 3.0 11.0 0.00 0.00 0.00 35 1011.5
20260503203011 69 186 3.0 9.0 0.00 0.00 0.00 35 1011.4
20260503202534 69 215 3.0 8.0 0.00 0.00 0.00 35 1011.5
20260503202054 69 143 3.0 7.0 0.00 0.00 0.00 35 1011.5
20260503201516 69 212 3.0 10.0 0.00 0.00 0.00 35 1011.5
20260503201036 69 198 3.0 9.0 0.00 0.00 0.00 35 1011.6
20260503200553 69 185 2.0 6.0 0.00 0.00 0.00 35 1011.7
20260503200002 69 184 3.0 5.0 0.00 0.00 0.00 35 1011.7
20260503195521 69 188 2.0 7.0 0.00 0.00 0.00 34 1011.7
20260503195038 68 216 3.0 7.0 0.00 0.00 0.00 34 1011.8
20260503194601 68 167 1.0 5.0 0.00 0.00 0.00 34 1011.8
20260503194005 68 182 2.0 5.0 0.00 0.00 0.00 34 1011.7
20260503193536 68 163 1.0 5.0 0.00 0.00 0.00 34 1011.7
20260503193055 68 189 1.0 4.0 0.00 0.00 0.00 34 1011.7
20260503192520 68 199 2.0 6.0 0.00 0.00 0.00 34 1011.7
20260503192040 68 194 3.0 6.0 0.00 0.00 0.00 34 1011.7
20260503191506 68 207 0.0 4.0 0.00 0.00 0.00 34 1011.7
20260503191023 69 179 1.0 4.0 0.00 0.00 0.00 34 1011.8
20260503190554 69 191 0.0 3.0 0.00 0.00 0.00 34 1011.8
20260503190015 69 180 1.0 4.0 0.00 0.00 0.00 34 1011.7
20260503185538 69 192 0.0 4.0 0.00 0.00 0.00 34 1011.8
20260503185059 69 210 0.0 3.0 0.00 0.00 0.00 34 1011.8
20260503184513 69 202 0.0 3.0 0.00 0.00 0.00 34 1011.8
20260503184031 70 181 0.0 2.0 0.00 0.00 0.00 34 1011.7
20260503183551 70 183 0.0 3.0 0.00 0.00 0.00 33 1011.7
20260503183007 71 219 0.0 3.0 0.00 0.00 0.00 33 1011.6
20260503182538 71 217 0.0 0.0 0.00 0.00 0.00 33 1011.6
20260503182057 71 217 0.0 0.0 0.00 0.00 0.00 32 1011.5
20260503181541 72 217 0.0 0.0 0.00 0.00 0.00 32 1011.5
20260503181042 72 217 0.0 0.0 0.00 0.00 0.00 31 1011.5
20260503180559 73 217 0.0 0.0 0.00 0.00 0.00 31 1011.5
20260503180038 73 217 0.0 0.0 0.00 0.00 0.00 30 1011.4
20260503175541 74 217 0.0 3.0 0.00 0.00 0.00 29 1011.4
20260503175048 74 217 0.0 3.0 0.00 0.00 0.00 29 1011.4
20260503174505 74 210 0.0 3.0 0.00 0.00 0.00 28 1011.4
20260503174034 75 198 0.0 4.0 0.00 0.00 0.00 28 1011.4
20260503173554 75 203 0.0 4.0 0.00 0.00 0.00 28 1011.5
20260503173019 75 200 1.0 4.0 0.00 0.00 0.00 28 1011.5
20260503172539 76 194 0.0 8.0 0.00 0.00 0.00 27 1011.5
20260503172057 76 209 1.0 4.0 0.00 0.00 0.00 27 1011.5
20260503171522 76 204 1.0 5.0 0.00 0.00 0.00 26 1011.5
20260503171042 76 197 2.0 5.0 0.00 0.00 0.00 26 1011.5
20260503170602 77 188 2.0 6.0 0.00 0.00 0.00 26 1011.5
20260503151009 82 258 3.0 9.0 0.00 0.00 0.00 23 1011.8
20260503150529 82 210 2.0 11.0 0.00 0.00 0.00 23 1012.0
20260503131049 83 225 5.0 12.0 0.00 0.00 0.00 22 1013.0
20260503130503 83 243 4.0 12.0 0.00 0.00 0.00 22 1013.0
20260503110500 81 194 5.0 10.0 0.00 0.00 0.00 24 1014.1
20260503090512 78 188 4.0 12.0 0.00 0.00 0.00 27 1015.1
20260503081542 76 238 4.0 8.0 0.00 0.00 0.00 28 1015.2
20260503081100 76 201 3.0 10.0 0.00 0.00 0.00 29 1015.3
20260503080516 75 216 4.0 13.0 0.00 0.00 0.00 29 1015.2
20260503072505 72 240 8.0 16.0 0.00 0.00 0.00 32 1015.1
20260503072035 72 153 5.0 12.0 0.00 0.00 0.00 34 1015.1
20260503071554 71 244 6.0 12.0 0.00 0.00 0.00 34 1015.1
20260503071021 71 177 5.0 14.0 0.00 0.00 0.00 35 1015.1
20260503070540 70 269 5.0 12.0 0.00 0.00 0.00 35 1015.2
20260503055100 63 178 4.0 12.0 0.00 0.00 0.00 42 1015.3
20260503054524 63 219 5.0 16.0 0.00 0.00 0.00 42 1015.4
20260503054045 63 212 5.0 16.0 0.00 0.00 0.00 41 1015.3
20260503053503 62 222 5.0 11.0 0.00 0.00 0.00 42 1015.3
20260503053031 62 241 6.0 14.0 0.00 0.00 0.00 41 1015.4
20260503052549 62 170 5.0 14.0 0.00 0.00 0.00 42 1015.4
20260503052015 62 223 5.0 12.0 0.00 0.00 0.00 43 1015.3
20260503051535 62 181 4.0 14.0 0.00 0.00 0.00 43 1015.3
20260503051052 61 258 5.0 14.0 0.00 0.00 0.00 43 1015.3
20260503050509 61 217 4.0 12.0 0.00 0.00 0.00 43 1015.3
20260503050037 61 186 6.0 12.0 0.00 0.00 0.00 43 1015.3
20260503045556 61 198 5.0 11.0 0.00 0.00 0.00 43 1015.3
20260503045022 60 204 6.0 10.0 0.00 0.00 0.00 43 1015.3
20260503044558 60 161 5.0 10.0 0.00 0.00 0.00 43 1015.3
20260503044008 60 246 4.0 11.0 0.00 0.00 0.00 43 1015.4
20260503043524 60 183 5.0 11.0 0.00 0.00 0.00 43 1015.3
20260503043043 60 216 5.0 11.0 0.00 0.00 0.00 43 1015.3
20260503042602 59 195 6.0 10.0 0.00 0.00 0.00 44 1015.4
20260503042028 59 217 5.0 13.0 0.00 0.00 0.00 44 1015.4
20260503041607 59 211 5.0 14.0 0.00 0.00 0.00 44 1015.4
20260503041013 59 173 4.0 16.0 0.00 0.00 0.00 44 1015.4
20260503040532 59 184 6.0 11.0 0.00 0.00 0.00 43 1015.4
20260503035519 59 227 4.0 11.0 0.00 0.00 0.00 43 1015.5
20260503035036 59 246 5.0 11.0 0.00 0.00 0.00 43 1015.4
20260503034550 59 207 3.0 11.0 0.00 0.00 0.00 43 1015.5
20260503034006 59 226 4.0 11.0 0.00 0.00 0.00 43 1015.4
20260503033536 59 242 4.0 11.0 0.00 0.00 0.00 43 1015.4
20260503033114 59 200 3.0 10.0 0.00 0.00 0.00 43 1015.4
20260503032521 59 199 4.0 10.0 0.00 0.00 0.00 43 1015.4
20260503032042 59 238 4.0 16.0 0.00 0.00 0.00 43 1015.4
20260503031507 59 241 2.0 16.0 0.00 0.00 0.00 43 1015.4
20260503031025 59 157 3.0 10.0 0.00 0.00 0.00 43 1015.4
20260503030553 59 210 4.0 9.0 0.00 0.00 0.00 43 1015.4
20260503030009 59 236 4.0 14.0 0.00 0.00 0.00 42 1015.4
20260503025538 59 221 4.0 14.0 0.00 0.00 0.00 42 1015.4
20260503025058 59 212 6.0 13.0 0.00 0.00 0.00 42 1015.4
20260503024523 60 189 3.0 14.0 0.00 0.00 0.00 42 1015.4
20260503024045 59 146 3.0 11.0 0.00 0.00 0.00 42 1015.6
20260503023509 59 192 3.0 11.0 0.00 0.00 0.00 42 1015.6
20260503023029 60 225 3.0 12.0 0.00 0.00 0.00 42 1015.6
20260503022545 59 212 4.0 12.0 0.00 0.00 0.00 42 1015.6
20260503022004 59 206 4.0 13.0 0.00 0.00 0.00 43 1015.6
20260503021530 58 179 5.0 13.0 0.00 0.00 0.00 44 1015.6
20260503021048 57 184 3.0 9.0 0.00 0.00 0.00 45 1015.6
20260503020515 56 190 3.0 11.0 0.00 0.00 0.00 47 1015.8
20260503020030 54 182 5.0 11.0 0.00 0.00 0.00 49 1015.8
20260503015553 53 213 3.0 7.0 0.00 0.00 0.00 52 1015.8
20260503015016 53 161 0.0 3.0 0.00 0.00 0.00 53 1015.8
20260503014543 53 60 1.0 3.0 0.00 0.00 0.00 52 1015.8
20260503014054 54 81 0.0 3.0 0.00 0.00 0.00 51 1015.9
20260503013511 55 176 1.0 3.0 0.00 0.00 0.00 49 1016.0
20260503013040 56 342 0.0 3.0 0.00 0.00 0.00 47 1016.0
20260503012602 57 64 1.0 3.0 0.00 0.00 0.00 46 1015.9
20260503012025 58 62 1.0 7.0 0.00 0.00 0.00 44 1016.0
20260503011546 58 209 0.0 5.0 0.00 0.00 0.00 42 1016.0
20260503011104 58 165 0.0 6.0 0.00 0.00 0.00 42 1016.0
20260503010520 58 190 1.0 6.0 0.00 0.00 0.00 42 1016.1
20260503010049 58 195 1.0 5.0 0.00 0.00 0.00 41 1016.1
20260503005506 59 202 1.0 5.0 0.00 0.00 0.00 41 1016.1
20260503005036 59 163 1.0 5.0 0.00 0.00 0.00 41 1016.1
20260503004600 60 155 0.0 5.0 0.00 0.00 0.00 39 1016.0
20260503004021 60 190 1.0 7.0 0.00 0.00 0.00 38 1016.1
20260503003540 61 168 0.0 5.0 0.00 0.00 0.00 37 1016.2
20260503003006 61 170 1.0 5.0 0.00 0.00 0.00 36 1016.2
20260503002527 62 180 2.0 7.0 0.00 0.00 0.00 35 1016.2
20260503002043 62 176 3.0 6.0 0.00 0.00 0.00 35 1016.3
20260503001606 61 165 1.0 7.0 0.00 0.00 0.00 35 1016.3
20260503001024 61 184 1.0 8.0 0.00 0.00 0.00 36 1016.5
20260503000544 61 168 2.0 10.0 0.00 0.00 0.00 35 1016.5
20260503000010 60 190 2.0 6.0 0.00 0.00 0.00 36 1016.5
20260502235529 61 196 2.0 7.0 0.00 0.00 0.00 36 1016.6
20260502235101 61 194 2.0 5.0 0.00 0.00 0.00 36 1016.7
20260502234529 60 199 2.0 6.0 0.00 0.00 0.00 36 1016.8
20260502234041 60 251 1.0 6.0 0.00 0.00 0.00 36 1016.8
20260502233602 59 130 1.0 8.0 0.00 0.00 0.00 37 1016.8
20260502233027 59 193 1.0 8.0 0.00 0.00 0.00 38 1016.9
20260502232544 59 181 1.0 7.0 0.00 0.00 0.00 39 1016.9
20260502232102 58 203 1.0 6.0 0.00 0.00 0.00 40 1017.0
20260502231526 57 194 2.0 6.0 0.00 0.00 0.00 42 1017.0
20260502231043 56 231 1.0 5.0 0.00 0.00 0.00 44 1017.0
20260502230604 56 205 0.0 9.0 0.00 0.00 0.00 47 1017.0
20260502230021 56 184 3.0 9.0 0.00 0.00 0.00 52 1016.9
20260502225547 56 135 0.0 2.0 0.00 0.00 0.00 53 1017.0
20260502225005 57 182 0.0 1.0 0.00 0.00 0.00 53 1017.2
20260502224533 57 258 0.0 0.0 0.00 0.00 0.00 52 1017.3
20260502224053 57 258 0.0 4.0 0.00 0.00 0.00 51 1017.4
20260502223520 58 258 1.0 7.0 0.00 0.00 0.00 50 1017.5
20260502223039 58 257 4.0 7.0 0.00 0.00 0.00 51 1017.6
20260502222558 59 118 0.0 0.0 0.00 0.00 0.00 50 1017.4